Home   Weather   Lafayette   Past weeks

Flag for USA Past Weather in Lafayette, Indiana, USA — Yesterday and Last 2 Weeks

Now
70 °F

Sunny.


Feels Like: 76 °F
Forecast: 51 / 68 °F
Wind: 15 mph from West

Location: Purdue University Airport

Current Time: Sep 26, 2016 at 4:59:54 PM

Latest Report: Sep 26, 2016 at 3:54 PM


Visibility: 10 mi

Pressure: 29.98 "Hg

Humidity: 30%

Dew Point: 37 °F

Location of LafayetteLocation

Past Weather in Lafayette — Graph

°F

Lafayette Temperature Yesterday

Maximum temperature yesterday: 87 °F (at 3:54 PM)
Minimum temperature yesterday: 60 °F (at 7:54 AM)
Average temperature yesterday: 72 °F

High & Low Weather Summary for the Past Weeks

 TemperatureHumidityPressure
High87 °F (Sep 25, 3:54 PM)100% (Sep 11, 9:54 PM)30.22 "Hg (Sep 11, 9:54 PM)
Low52 °F (Sep 19, 7:59 AM)30% (Sep 19, 3:54 PM)29.91 "Hg (Sep 17, 6:54 AM)
Average69 °F81%30.07 "Hg
* Reported Sep 11 3:54 PM — Sep 26 3:54 PM, Lafayette, Weather by CustomWeather, © 2016

Note: Actual official high and low records may vary slightly from our data, if they occured in-between our weather recording intervals... More about our weather records

Advertising

Lafayette Weather History for the Previous 24 Hours

Scroll right to see more
 ConditionsComfort  
Time TempWeatherWind HumidityBarometerVisibility
3:54 PM
Mon, Sep 26
70 °FSunny.15 mph30%29.98 "Hg10 mi
2:54 PM70 °FSunny.14 mph38%30.00 "Hg10 mi
1:54 PM69 °FSunny.20 mph38%30.03 "Hg10 mi
12:54 PM66 °FSunny.15 mph45%30.04 "Hg10 mi
11:54 AM61 °FSunny.9 mph75%30.06 "Hg10 mi
10:54 AM59 °FSunny.14 mph90%30.06 "Hg10 mi
9:54 AM58 °FSunny.10 mph97%30.06 "Hg10 mi
8:54 AM57 °FPartly sunny.7 mph100%30.03 "Hg10 mi
7:54 AM57 °FPartly sunny.7 mph100%30.03 "Hg8 mi
6:54 AM58 °FLight rain. Mostly cloudy.8 mph97%30.02 "Hg10 mi
5:54 AM58 °FLight rain. Mostly cloudy.7 mph100%30.00 "Hg10 mi
4:54 AM59 °FHeavy rain. Fog.6 mph93%29.99 "Hg2 mi
3:54 AM64 °FOvercast.13 mph78%29.97 "Hg10 mi
2:54 AM65 °FPassing clouds.9 mph87%29.96 "Hg10 mi
1:54 AM69 °FPassing clouds.10 mph93%29.94 "Hg10 mi
12:54 AM69 °FPassing clouds.6 mph96%29.94 "Hg8 mi
11:54 PM
Sun, Sep 25
69 °FPassing clouds.5 mph96%29.95 "Hg8 mi
10:54 PM69 °FClear.No wind96%29.95 "Hg10 mi
10:04 PM71 °FPassing clouds.No wind84%29.97 "Hg10 mi
8:54 PM71 °FPassing clouds.No wind87%29.95 "Hg10 mi
7:54 PM72 °FPassing clouds.5 mph87%29.96 "Hg10 mi
6:54 PM71 °FLight rain. Broken clouds.5 mph87%29.95 "Hg10 mi
5:54 PM83 °FScattered clouds.5 mph57%29.93 "Hg10 mi
4:54 PM87 °FPassing clouds.7 mph50%29.94 "Hg10 mi
Weather by CustomWeather, © 2016

See weather overviewHow to use our weather pages